Location: Kerb�bon
(47.7970°N, 3.3487°W)
Time: 13:22:41
(UTC+00:00)

Cosmos 1812 - Pass Details

Date: 12 May 2021
Orbit: 514 x 521 km, 82.5° (Epoch: 18 June)

Event Time Altitude Azimuth Distance (km) Brightness Sun altitude
Exits shadow 20:32:07 - 144° (SE) 1,798 4.8 -7.9°
Reaches altitude 10° 20:32:14 10° 143° (SE) 1,756 4.8 -7.9°
Maximum altitude 20:35:21 24° 89° (E) 1,124 4.0 -8.3°
Drops below altitude 10° 20:38:29 10° 35° (NE) 1,769 5.5 -8.7°
Sets 20:40:54 0° 21° (NNE) 2,662 6.6 -9.1°
